The University of Tennessee Institute of Agriculture
Tmail  /  Online@UT  /  A-Z Index

Biosystems Engineering & Soil Science


West Tennessee, Cotton farm, Haywood County, daily data

Show metric units       Show half-hour records
Date Solar rad
mJ/m2
Precip
(in)
Air temp
(deg F)
Max Min Avg
Rel humid (%)
Max Min Avg
Avg
windspeed
(mi/hr)
Soil temp
6" (deg F)
Max Min Avg
Soil temp
12" (deg F)
Max Min Avg
Evap.
trans.
(in)
1/1/18 10.7 019  7  1374  37  57643  43  4332  32  32--
1/2/18 9.9 021  5  1270  37  54343  41  4232  32  32--
1/3/18 10.2 034  16  2371  27  52441  41  4132  32  32--
1/4/18Incomplete records (40) were available today.
1/5/18Incomplete records (27) were available today.
1/6/18Incomplete records (21) were available today.
1/7/18 4.1 0.0345  21  3468  33  47539  39  3932  32  32--
1/8/18 2.4 0.5545  37  40100  70  94339  39  3932  32  32--
1/9/18 2.6 0.0448  39  43100  95  99239  39  3932  32  32--
1/10/18 2.4 059  46  54100  89  96341  39  4032  32  320.02
1/11/18 2.2 0.3863  57  6199  86  93345  41  4232  32  320.03
1/12/18 3.2 0.4855  18  2797  92  94246  45  4532  32  32--
1/13/18 11.2 0.0123  18  2093  62  79045  45  4532  32  32--
1/14/18 9.2 0.0827  12  2086  47  70145  43  4332  32  32--
1/15/18 9.7 0.4037  21  2994  55  72443  43  4332  32  32--
1/16/18 10.3 027  5  1294  54  80543  41  4332  32  32--
1/17/18 10.2 018  1  989  59  76241  41  4132  32  32--
1/18/18 12.0 0.1736  7  2091  38  67241  41  4132  32  32--
1/19/18 9.8 045  23  3365  32  49441  41  4132  32  32--
1/20/18 4.7 059  41  4984  37  52341  41  4132  32  32--
1/21/18 8.3 070  54  5983  60  72443  41  4132  32  320.06
1/22/18 10.5 0.5664  48  5898  27  58645  43  4332  32  320.08
1/23/18 5.0 048  34  4182  47  62645  45  4532  32  32--
1/24/18 12.4 048  27  3696  47  75345  45  4532  32  32--
1/25/18 12.5 063  34  4581  24  53345  45  4532  32  32--
1/26/18 11.6 063  34  4873  25  48445  45  4532  32  32--
1/27/18 1.0 0.8554  52  53100  56  83345  45  4532  32  320.02
1/28/18 12.7 057  43  49100  32  69046  45  4632  32  32--
1/29/18 7.5 041  30  3779  55  66246  46  4632  32  32--
1/30/18 12.1 039  23  3185  35  62246  45  4532  32  32--
1/31/18 13.1 063  30  4564  27  43545  45  4532  32  32--
2/1/18 1.5 0.0650  30  4598  51  71245  45  4532  32  32--
2/2/18 13.5 034  21  2667  29  47445  45  4532  32  32--
2/3/18 9.0 0.1252  27  3881  19  43345  43  4332  32  32--
2/4/18 11.1 0.8052  28  4299  62  85543  43  4332  32  32--
2/5/18 13.8 043  21  3184  43  62445  43  4432  32  32--
2/6/18 3.1 0.3141  34  3797  53  72343  43  4332  32  32--
2/7/18 5.7 0.6236  28  3298  73  87443  43  4332  32  32--
2/8/18 14.2 048  23  3397  43  74143  43  4332  32  32--
2/9/18 11.3 0.0664  32  4781  30  55343  43  4332  32  32--
2/10/18 1.7 2.4154  41  48100  92  99345  43  4332  32  32--
2/11/18 2.9 0.0841  30  35100  83  94445  45  4532  32  32--
2/12/18 13.9 043  27  3384  56  72245  45  4532  32  32--
2/13/18 10.5 054  30  4284  59  75245  43  4432  32  32--
2/14/18 2.8 0.4263  50  5799  87  97445  43  4432  32  320.03
2/15/18 8.1 073  63  6898  60  80748  45  4632  32  320.07
2/16/18 2.2 0.0570  41  5393  71  80650  48  4932  32  320.02
2/17/18 2.3 0.9148  39  4299  77  90450  50  5032  32  32--
2/18/18 12.8 059  30  46100  41  78350  48  4832  32  32--
2/19/18 11.6 077  54  6494  50  78548  48  4832  32  320.09
2/20/18 12.3 077  66  7177  54  68652  48  5032  32  320.10
2/21/18 2.2 1.9272  43  5399  69  91654  52  5232  32  320.02
2/22/18 4.2 1.0754  43  48100  88  97354  52  5232  32  32--
2/23/18 6.9 0.1870  54  60100  78  95452  52  5232  32  320.06
2/24/18 2.8 1.1572  55  64100  78  93454  52  5232  32  320.03
2/25/18 6.8 0.1255  46  5094  53  73354  54  5432  32  32--
2/26/18 17.3 064  41  5192  35  65254  54  5432  32  320.10
2/27/18 15.7 070  43  5577  26  51354  52  5332  32  320.10
2/28/18 2.4 3.6763  52  57100  54  97454  52  5332  32  320.03
3/1/18 8.4 0.9663  50  58100  63  87554  54  5432  32  320.06
3/2/18 18.0 057  41  4982  36  61354  54  5432  32  32--
3/3/18 18.5 061  36  4872  24  50254  52  5332  32  32--
3/4/18 14.1 066  37  5167  26  48252  52  5232  32  320.08
3/5/18 3.9 1.0259  46  5399  59  83352  52  5232  32  320.03
3/6/18 18.8 061  39  5285  20  44652  52  5232  32  320.12
3/7/18 5.7 045  34  3972  41  57652  52  5232  32  32--
3/8/18 18.4 045  30  3775  39  57052  50  5032  32  32--
3/9/18 17.1 066  32  4883  26  52350  48  4932  32  32--
3/10/18 11.0 0.1166  50  5989  36  63350  48  5032  32  320.08
3/11/18 2.1 0.0957  37  4997  79  89252  50  5132  32  32--
3/12/18 15.4 0.0148  34  4094  54  74652  50  5132  32  32--
3/13/18 18.9 048  30  3997  38  68450  50  5032  32  32--
3/14/18 20.1 050  30  4078  22  47350  48  5032  32  32--
3/15/18 19.5 070  39  5360  24  41448  48  4832  32  320.13
3/16/18 6.3 0.1866  50  5797  46  70350  48  5032  32  320.05
3/17/18 14.8 075  52  6598  35  74652  50  5032  32  320.11
3/18/18 12.5 0.1459  45  5094  59  75352  52  5232  32  320.07
3/19/18 9.2 0.2170  46  5499  50  88554  52  5332  32  320.06
3/20/18 2.4 054  39  4590  80  85554  54  5432  32  32--
3/21/18 16.2 050  32  4191  48  68454  52  5232  32  32--
3/22/18 20.5 061  30  4699  33  64152  50  5132  32  32--
3/23/18 8.5 066  43  5475  40  58352  50  5132  32  320.06
3/24/18 5.1 072  55  6394  50  72652  52  5232  32  320.05
3/25/18 6.7 054  43  4797  67  84454  52  5332  32  32--
3/26/18 10.3 063  43  5396  70  83454  52  5332  32  320.07
3/27/18 16.2 077  55  6484  47  69654  52  5332  32  320.12
3/28/18 4.2 1.7966  61  63100  73  91255  54  5532  32  320.04
3/29/18 6.3 0.2768  50  6099  58  88555  55  5532  32  320.05
3/30/18 15.3 059  45  5287  46  71455  55  5532  32  320.09
3/31/18 21.2 073  41  5691  26  58355  55  5532  32  320.13
4/1/18 8.9 0.0863  46  5598  45  78355  55  5532  32  320.06
4/2/18 4.8 059  41  4895  73  87355  55  5532  32  32--
4/3/18 12.3 0.2379  52  6994  49  70655  55  5532  32  320.10
4/4/18 23.0 050  36  4376  41  58655  55  5532  32  32--
4/5/18 18.0 063  32  4691  28  59355  54  5532  32  32--
4/6/18 4.1 0.3057  46  5298  47  85254  54  5432  32  320.03
4/7/18 6.5 046  30  3784  48  70654  54  5432  32  32--
4/8/18 8.5 046  30  3874  48  60354  52  5232  32  32--
4/9/18 23.2 061  36  4886  36  56352  52  5232  32  32--
4/10/18 20.5 055  39  4884  49  65452  52  5232  32  32--
4/11/18 18.1 070  34  5295  26  59252  52  5232  32  320.11
4/12/18 22.9 082  57  6954  20  38654  52  5232  32  320.21
4/13/18 15.3 079  63  7175  35  57955  54  5432  32  320.13
4/14/18 5.3 1.9673  52  62100  57  85857  55  5732  32  320.05
4/15/18 6.3 052  39  4375  55  65757  55  5732  32  32--
4/16/18 21.4 052  34  4272  47  54755  54  5532  32  32--
4/17/18 23.2 079  37  5990  29  57454  54  5432  32  320.15
4/18/18 18.9 079  61  6973  30  54755  54  5432  32  320.15
4/19/18 19.7 059  41  4867  40  51555  55  5532  32  32--
4/20/18 24.8 070  36  5293  23  54255  55  5532  32  320.14
4/21/18 21.9 073  45  5968  30  47455  55  5532  32  320.15
4/22/18 1.8 1.3364  55  5899  44  91357  55  5632  32  320.02
4/23/18 4.3 0.3459  55  5799  90  97057  57  5732  32  320.04
4/24/18 7.4 0.0263  54  57100  80  94057  57  5732  32  320.06
4/25/18 13.3 0.2472  52  58100  40  84157  57  5732  32  320.09
4/26/18 7.2 0.5864  52  5698  71  92257  57  5732  32  320.05
4/27/18 24.5 072  48  6098  39  70357  57  5732  32  320.17
4/28/18 25.0 072  48  6178  26  52357  57  5732  32  320.17
4/29/18 26.2 068  45  5673  23  45257  57  5732  32  320.18
4/30/18 26.2 077  39  5979  23  45457  57  5732  32  320.19
5/1/18 24.5 082  52  6974  23  46559  57  5732  32  320.20
5/2/18 19.3 084  64  7484  48  67559  59  5932  32  320.16
5/3/18 17.9 082  68  7570  42  59561  59  6132  32  320.15
5/4/18 7.1 0.3177  66  7193  60  78463  61  6232  32  320.07
5/5/18 9.1 0.3572  61  6699  77  92163  63  6332  32  320.08
5/6/18 24.6 084  55  69100  28  68263  63  6332  32  320.19
5/7/18 25.7 084  59  7286  33  55263  63  6332  32  320.20
5/8/18 24.3 084  54  7094  36  60264  63  6432  32  320.19
5/9/18 16.5 086  64  7575  33  56564  64  6432  32  320.14
5/10/18 19.6 090  68  7869  34  53464  64  6432  32  320.17
5/11/18 25.4 088  68  7870  35  51466  64  6532  32  320.21
5/12/18 22.6 086  66  7779  42  59466  66  6632  32  320.19
5/13/18 24.0 090  66  7883  36  60366  66  6632  32  320.20
5/14/18 25.0 091  68  8187  44  60368  66  6832  32  320.21
5/15/18 24.0 091  68  8094  34  63268  68  6832  32  320.20
5/16/18 16.1 086  66  7591  55  76370  68  7032  32  320.14
5/17/18 12.6 081  63  71100  63  84170  70  7032  32  320.11
5/18/18 18.5 0.0682  66  7299  60  85270  68  6932  32  320.15
5/19/18 13.2 0.5186  66  7299  55  85370  68  6932  32  320.11
5/20/18 18.6 090  64  7499  52  81370  68  6932  32  320.15
5/21/18 14.5 082  68  7496  65  81470  68  7032  32  320.12
5/22/18 15.5 0.0984  68  7599  66  86170  70  7032  32  320.13
5/23/18 22.9 090  66  78100  47  76170  70  7032  32  320.19
5/24/18 21.2 090  66  7998  43  72170  70  7032  32  320.18
5/25/18 14.9 0.0288  68  76100  52  81272  70  7032  32  320.13
5/26/18 18.2 088  68  7797  50  79372  72  7232  32  320.15
5/27/18 21.2 090  68  7999  43  73272  72  7232  32  320.18
5/28/18 14.8 0.2786  68  7599  56  85272  72  7232  32  320.13
5/29/18 10.2 0.3781  70  7498  69  89272  72  7232  32  320.09
5/30/18 24.6 090  72  8098  45  75472  72  7232  32  320.21
5/31/18 16.1 088  75  8187  57  73572  72  7232  32  320.14
6/1/18 11.9 0.9384  66  7499  70  87473  72  7232  32  320.10
6/2/18 22.8 091  68  79100  47  78172  72  7232  32  320.19
6/3/18 24.7 084  68  7889  36  64473  72  7232  32  320.21
6/4/18 26.6 084  61  7393  33  60273  72  7332  32  320.21
6/5/18 26.3 086  61  7393  35  61173  72  7232  32  320.21
6/6/18 27.1 091  61  7797  30  60172  72  7232  32  320.22
6/7/18 25.4 091  63  7999  32  62272  72  7232  32  320.21
6/8/18 24.7 093  66  8193  33  62272  72  7232  32  320.21
6/9/18 22.3 0.0391  70  8197  38  68273  72  7332  32  320.19
6/10/18 25.9 093  73  8390  41  65373  73  7332  32  320.22
6/11/18 21.8 090  72  8190  51  69473  73  7332  32  320.19
6/12/18 23.4 0.3190  70  8097  57  75573  73  7332  32  320.20
6/13/18 19.9 0.0790  70  7998  63  83475  73  7432  32  320.17
6/14/18 22.5 091  73  8297  53  78375  73  7432  32  320.19
6/15/18 23.8 093  72  8497  43  69275  75  7532  32  320.21
6/16/18 22.5 093  72  8498  43  69275  75  7532  32  320.20
6/17/18 26.3 093  75  8490  48  70375  75  7532  32  320.23

 
Copyright ©2012 Biosystems Engineering & Soil Science · Webmaster · Disclaimer